Hauptseite
METAR-TAF:

METAR-TAF

Flughäfen :

Kassel, Deutschland

Flughafen Kassel-Calden

Breite: 51-24N, Länge: 009-23E, Höhe: 277 m

Beobachtung

Neuester Wetterbericht von vor 1 Stunde und 55 Minuten, um 22:20 UTC
Wind 7 kt aus Ost/Südost
Temperatur 18°C
Luftfeuchtigkeit 83%
Luftdruck 1005 hPa
Sichtweite 10 km oder mehr
keine Wolken unter 1500 m und keine Kumulonimbus oder Gewitterwolken

METAR: EDVK 272220Z 11007KT CAVOK 18/15 Q1005

Zeit: 02:15 (00:15 UTC)

Prognose

Neuester Wetterbericht von vor 4 Stunden und 15 Minuten, um 20:00 UTC
Gültige Prognose vom 27 um 21 UTC bis 28 um 01 UTC
Wind 6 kt aus Ost/Südost
Sichtweite 10 km oder mehr
keine Wolken unter 1500 m und keine Kumulonimbus oder Gewitterwolken

TAF: EDVK 272000Z 2721/2801 11006KT CAVOK

Wetterbeobachtungen und Prognosen von mehr als 4000 Flughäfen (METAR und TAF Bericht).

Die verfügbaren Stationen werden durch gelbe und rote Markierungen auf der Karte dargestellt.

Führen Sie die Maus auf sie, um den Namen der Station zu sehen.

Darauf klicken, um die Beobachtung von Wetterbeobachtungen und Prognosen zu sehen.

Um die Karte zu ändern : klicken Sie auf den grünen Tasten mit einem schwarzen Kreuz Zum Vergrößern, auf den grünen Button mit einem Gedankenstrich zu verkleinern, oder auf die grünen Pfeile für benachbarte Karten.


METAR-TAF: